Location: Bijele Vode
(45.2833°N, 16.2000°E)
Time: 19:23:45
(UTC+00:00)

DX 1 - Visible Passes

Search period start: 07 December 2021 00:00
Search period end: 17 December 2021 00:00
Orbit: 619 x 630 km, 98.4° (Epoch: 07 December)

Date Brightness Start Highest point End Pass type
(mag) Time Alt. Az. Time Alt. Az. Time Alt. Az.
07 Dec ? 05:16:34 10° ESE 05:20:09 25° ENE 05:23:44 10° N visible
08 Dec ? 05:34:33 10° SE 05:38:34 37° ENE 05:42:36 10° N visible
10 Dec ? 04:39:04 10° ENE 04:40:09 11° ENE 04:41:14 10° NE visible
11 Dec ? 04:55:50 10° E 04:58:28 16° ENE 05:01:06 10° NNE visible
12 Dec ? 05:13:24 10° ESE 05:16:50 23° ENE 05:20:15 10° NNE visible
13 Dec ? 05:31:19 10° SE 05:35:14 33° ENE 05:39:10 10° N visible
14 Dec ? 05:49:28 10° SE 05:53:42 50° ENE 05:57:56 10° N visible
16 Dec ? 04:52:48 10° E 04:55:08 14° ENE 04:57:30 10° NNE visible
